N7QNM-13 Weather Reports


Display with metric or nautical units.
time (UTC)temp
F
wind
direction
speed
MPH
gust
MPH
rain 1hr
in
rain 24hr
in
rain mn
in
humidity
%
barometer
mb
20260509153555 61 301 1.0 6.0 0.00 0.00 0.00 56 1020.3
20260509152555 60 301 1.0 8.0 0.00 0.00 0.00 57 1020.3
20260509151556 59 270 5.0 9.0 0.00 0.00 0.00 58 1020.3
20260509150555 59 247 2.0 5.0 0.00 0.00 0.00 60 1020.4
20260509145556 58 246 2.0 4.0 0.00 0.00 0.00 62 1020.5
20260509144555 56 215 0.0 2.0 0.00 0.00 0.00 66 1020.5
20260509143616 53 210 0.0 3.0 0.00 0.00 0.00 70 1020.4
20260509142556 52 263 5.0 6.0 0.00 0.00 0.00 71 1020.2
20260509141556 52 236 5.0 7.0 0.00 0.00 0.00 72 1020.1
20260509140556 52 152 1.0 3.0 0.00 0.00 0.00 75 1020.1
20260509135556 50 0.0 0.0 0.00 0.00 0.00 77 1020.1
20260509134556 49 108 0.0 3.0 0.00 0.00 0.00 79 1020.0
20260509133556 48 141 0.0 2.0 0.00 0.00 0.00 78 1019.8
20260509132617 47 53 2.0 6.0 0.00 0.00 0.00 78 1019.6
20260509131557 46 0.0 0.0 0.00 0.00 0.00 78 1019.4
20260509130556 45 169 0.0 1.0 0.00 0.00 0.00 80 1019.4
20260509125557 45 221 1.0 3.0 0.00 0.00 0.00 78 1019.4
20260509124617 46 0.0 0.0 0.00 0.00 0.00 77 1019.4
20260509123558 46 71 4.0 6.0 0.00 0.00 0.00 76 1019.4
20260509122557 47 180 0.0 3.0 0.00 0.00 0.00 73 1019.4
20260509121558 47 180 2.0 4.0 0.00 0.00 0.00 74 1019.4
20260509120558 47 115 1.0 4.0 0.00 0.00 0.00 74 1019.4
20260509115558 48 111 3.0 5.0 0.00 0.00 0.00 72 1019.4
20260509114558 49 177 0.0 2.0 0.00 0.00 0.00 70 1019.3
20260509113618 50 116 0.0 2.0 0.00 0.00 0.00 69 1019.3
20260509112558 51 118 2.0 4.0 0.00 0.00 0.00 69 1019.2
20260509111559 51 66 4.0 7.0 0.00 0.00 0.00 69 1019.3
20260509110558 53 86 3.0 5.0 0.00 0.00 0.00 68 1019.2
20260509105618 57 56 7.0 11.0 0.00 0.00 0.00 59 1019.0
20260509104558 56 206 4.0 8.0 0.00 0.00 0.00 57 1018.9
20260509103618 56 231 2.0 5.0 0.00 0.00 0.00 57 1018.9
20260509102559 57 184 2.0 4.0 0.00 0.00 0.00 56 1018.9
20260509101619 57 209 3.0 6.0 0.00 0.00 0.00 55 1018.9
20260509100559 57 201 3.0 6.0 0.00 0.00 0.00 55 1018.9
20260509095559 57 213 4.0 8.0 0.00 0.00 0.00 55 1018.8
20260509094559 57 214 5.0 10.0 0.00 0.00 0.00 55 1018.7
20260509093559 57 194 4.0 8.0 0.00 0.00 0.00 56 1018.8
20260509092600 57 206 4.0 6.0 0.00 0.00 0.00 55 1018.8
20260509091600 57 205 3.0 7.0 0.00 0.00 0.00 55 1018.8
20260509090620 58 176 3.0 6.0 0.00 0.00 0.00 55 1018.7
20260509085601 58 216 3.0 7.0 0.00 0.00 0.00 54 1018.7
20260509084600 59 236 3.0 7.0 0.00 0.00 0.00 53 1018.7
20260509083600 59 219 6.0 11.0 0.00 0.00 0.00 53 1018.6
20260509082600 59 233 6.0 12.0 0.00 0.00 0.00 53 1018.6
20260509081600 59 233 7.0 14.0 0.00 0.00 0.00 52 1018.6
20260509080601 59 244 6.0 10.0 0.00 0.00 0.00 52 1018.6
20260509075600 59 238 7.0 12.0 0.00 0.00 0.00 53 1018.5
20260509074601 59 237 6.0 12.0 0.00 0.00 0.00 52 1018.4
20260509073600 60 230 6.0 11.0 0.00 0.00 0.00 51 1018.3
20260509072601 60 237 5.0 9.0 0.00 0.00 0.00 50 1018.3
20260509071601 60 227 5.0 9.0 0.00 0.00 0.00 50 1018.2
20260509070601 60 231 5.0 9.0 0.00 0.00 0.00 49 1018.0
20260509065601 60 236 5.0 9.0 0.00 0.00 0.00 49 1017.9
20260509064601 59 229 5.0 11.0 0.00 0.00 0.00 51 1017.9
20260509063601 58 230 5.0 10.0 0.00 0.00 0.00 52 1017.7
20260509062602 58 241 3.0 5.0 0.00 0.00 0.00 54 1017.6
20260509061602 59 251 4.0 6.0 0.00 0.00 0.00 52 1017.7
20260509060604 61 273 5.0 10.0 0.00 0.00 0.00 50 1017.6
20260509055601 61 245 5.0 9.0 0.00 0.00 0.00 49 1017.5
20260509054602 62 240 6.0 10.0 0.00 0.00 0.00 49 1017.3
20260509053602 62 255 10.0 14.0 0.00 0.00 0.00 47 1017.3
20260509052622 62 237 10.0 13.0 0.00 0.00 0.00 47 1017.3
20260509051602 62 223 7.0 13.0 0.00 0.00 0.00 47 1017.2
20260509050602 62 232 6.0 12.0 0.00 0.00 0.00 47 1017.0
20260509045603 62 244 6.0 9.0 0.00 0.00 0.00 48 1016.9
20260509044603 62 238 5.0 7.0 0.00 0.00 0.00 46 1017.1
20260509043602 62 213 3.0 6.0 0.00 0.00 0.00 45 1017.0
20260509042602 62 195 1.0 3.0 0.00 0.00 0.00 45 1016.9
20260509041623 62 156 0.0 3.0 0.00 0.00 0.00 44 1016.6
20260509040602 64 0.0 0.0 0.00 0.00 0.00 43 1016.4
20260509035623 65 226 0.0 3.0 0.00 0.00 0.00 41 1016.2
20260509034603 67 162 2.0 4.0 0.00 0.00 0.00 39 1016.0
20260509033603 68 273 1.0 4.0 0.00 0.00 0.00 38 1015.7
20260509032623 69 251 3.0 4.0 0.00 0.00 0.00 38 1015.5
20260509031604 70 269 5.0 7.0 0.00 0.00 0.00 37 1015.3
20260509030604 71 272 6.0 10.0 0.00 0.00 0.00 36 1015.1
20260509025604 72 267 8.0 12.0 0.00 0.00 0.00 36 1014.9
20260509024605 72 267 8.0 10.0 0.00 0.00 0.00 34 1014.6
20260509023604 73 280 11.0 16.0 0.00 0.00 0.00 34 1014.4
20260509022605 74 276 10.0 21.0 0.00 0.00 0.00 32 1014.3
20260509021604 74 278 11.0 19.0 0.00 0.00 0.00 31 1014.1
20260509020604 75 281 12.0 17.0 0.00 0.00 0.00 31 1014.0
20260509015604 75 291 13.0 21.0 0.00 0.00 0.00 30 1013.9
20260509014605 76 283 12.0 20.0 0.00 0.00 0.00 31 1013.8
20260509013605 76 284 12.0 19.0 0.00 0.00 0.00 30 1013.7
20260509012625 77 304 11.0 21.0 0.00 0.00 0.00 31 1013.7
20260509011605 77 291 10.0 19.0 0.00 0.00 0.00 30 1013.6
20260509010645 78 298 12.0 20.0 0.00 0.00 0.00 30 1013.5
20260509005605 78 311 6.0 13.0 0.00 0.00 0.00 30 1013.5
20260509004605 78 262 12.0 18.0 0.00 0.00 0.00 30 1013.4
20260509003606 78 305 8.0 17.0 0.00 0.00 0.00 28 1013.4
20260509002606 79 304 10.0 18.0 0.00 0.00 0.00 28 1013.3
20260509001606 79 275 9.0 16.0 0.00 0.00 0.00 28 1013.2
20260509000626 79 279 12.0 23.0 0.00 0.00 0.00 27 1013.1
20260508235606 79 263 8.0 13.0 0.00 0.00 0.00 28 1013.1
20260508234606 79 291 4.0 10.0 0.00 0.00 0.00 28 1013.0
20260508233606 79 261 9.0 14.0 0.00 0.00 0.00 28 1013.1
20260508232626 79 287 6.0 12.0 0.00 0.00 0.00 27 1013.2
20260508231626 79 299 8.0 15.0 0.00 0.00 0.00 27 1013.1
20260508230606 79 311 2.0 12.0 0.00 0.00 0.00 27 1013.2
20260508225707 78 299 8.0 15.0 0.00 0.00 0.00 27 1013.2
20260508224607 79 296 7.0 17.0 0.00 0.00 0.00 28 1013.2
20260508223607 78 289 11.0 18.0 0.00 0.00 0.00 28 1013.2
20260508222607 78 299 10.0 17.0 0.00 0.00 0.00 27 1013.2
20260508221607 78 262 10.0 16.0 0.00 0.00 0.00 28 1013.2
20260508220607 78 307 6.0 19.0 0.00 0.00 0.00 28 1013.2
20260508215627 78 292 9.0 16.0 0.00 0.00 0.00 28 1013.3
20260508214607 77 311 2.0 8.0 0.00 0.00 0.00 26 1013.3
20260508213607 78 299 9.0 17.0 0.00 0.00 0.00 28 1013.4
20260508212608 77 269 7.0 17.0 0.00 0.00 0.00 27 1013.3
20260508211608 76 285 10.0 14.0 0.00 0.00 0.00 28 1013.3
20260508210608 76 301 9.0 13.0 0.00 0.00 0.00 28 1013.3
20260508205628 76 306 5.0 11.0 0.00 0.00 0.00 30 1013.4
20260508204610 75 245 6.0 12.0 0.00 0.00 0.00 31 1013.4
20260508203628 74 296 8.0 16.0 0.00 0.00 0.00 32 1013.5
20260508202609 74 246 7.0 13.0 0.00 0.00 0.00 33 1013.5
20260508201608 74 283 4.0 12.0 0.00 0.00 0.00 34 1013.6
20260508200608 74 22 0.0 2.0 0.00 0.00 0.00 35 1013.6
20260508200108 73 56 3.0 8.0 0.00 0.00 0.00 34 1013.6
20260508195109 73 49 2.0 10.0 0.00 0.00 0.00 34 1013.7
20260508194108 73 26 1.0 5.0 0.00 0.00 0.00 35 1013.6
20260508193109 74 322 1.0 5.0 0.00 0.00 0.00 34 1013.5
20260508192109 73 300 2.0 5.0 0.00 0.00 0.00 33 1013.7
20260508191109 73 7 2.0 6.0 0.00 0.00 0.00 35 1013.7
20260508190149 73 24 1.0 6.0 0.00 0.00 0.00 35 1013.7
20260508185129 73 315 1.0 5.0 0.00 0.00 0.00 34 1013.7
20260508184110 72 55 0.0 3.0 0.00 0.00 0.00 34 1013.7
20260508183109 71 299 1.0 5.0 0.00 0.00 0.00 34 1013.7
20260508182109 72 288 4.0 8.0 0.00 0.00 0.00 35 1013.9
20260508181110 71 312 2.0 6.0 0.00 0.00 0.00 35 1013.9
20260508180110 71 307 4.0 12.0 0.00 0.00 0.00 36 1014.0
20260508175110 70 266 5.0 11.0 0.00 0.00 0.00 36 1014.1
20260508174110 70 273 4.0 9.0 0.00 0.00 0.00 38 1014.0
20260508173110 68 291 1.0 5.0 0.00 0.00 0.00 38 1014.1
20260508172110 68 286 4.0 9.0 0.00 0.00 0.00 40 1014.3
20260508171111 67 266 3.0 7.0 0.00 0.00 0.00 40 1014.2
20260508170130 65 298 0.0 3.0 0.00 0.00 0.00 49 1014.2
20260508165110 64 0.0 0.0 0.00 0.00 0.00 54 1014.3
20260508164111 64 0.0 0.0 0.00 0.00 0.00 56 1014.3
20260508163111 63 290 0.0 2.0 0.00 0.00 0.00 56 1014.3
20260508162152 62 304 0.0 1.0 0.00 0.00 0.00 58 1014.3
20260508161131 61 0.0 0.0 0.00 0.00 0.00 62 1014.1
20260508160111 60 109 0.0 3.0 0.00 0.00 0.00 63 1014.2
20260508155151 59 0.0 0.0 0.00 0.00 0.00 65 1014.2